Cut Bank, MT

6:46 PM MDT on October 22, 2019 (GMT -0600)
Cut Bank Municipal

Weather History for KCTB - August, 2019

Change the Weather History Date:

Friday, August 9, 2019

  Actual Average Record
Temperature  
Mean Temperature 63 °F 66 °F  
Max Temperature 70 °F 81 °F 101 °F (1930)
Min Temperature 56 °F 50 °F 35 °F (1946)
Degree Days  
Heating Degree Days 2 2  
Month to date heating degree days 2 18  
Since 1 June heating degree days 317 337  
Since 1 July heating degree days 95 104  
Cooling Degree Days 0 3  
Month to date cooling degree days 42 27  
Year to date cooling degree days 95 116  
Since 1 June cooling degree days 95 114  
Growing Degree Days 13 (Base 50)    
Moisture  
Dew Point 48 °F    
Average Humidity 57    
Maximum Humidity 81    
Minimum Humidity 33    
Precipitation  
Precipitation 0.01 in 0.04 in 0.75 in (1956)
Month to date precipitation 0.02 0.33  
Year to date precipitation 7.43 7.80  
Snow  
Snow - - - ()
Snow Depth 0.00 in    
Sea Level Pressure  
Sea Level Pressure 29.88 in    
Wind  
Wind Speed 11 mph ()    
Max Wind Speed 35 mph    
Max Gust Speed 41 mph    
Visibility 9.2 miles    
Events Rain    
T = Trace of Precipitation, MM = Missing Value Source: Averaged Metar Reports

Daily Weather History Graph

Daily Weather History Graph

Search for Another Location

Airport or City:

Astronomy

Aug. 09, 2019 Rise Set
Actual Time 6:14 AM MDT 8:54 PM MDT
Civil Twilight 5:38 AM MDT 9:30 PM MDT
Nautical Twilight 4:53 AM MDT 10:15 PM MDT
Astronomical Twilight 3:59 AM MDT 11:08 PM MDT
Moon 4:46 PM MDT (8/9) 1:11 AM MDT (8/9)
Length of Visible Light 15h 51m
Length of Day
14h 40m
Waxing Gibbous, 71% of the Moon is Illuminated
Aug 9
Waxing Gibbous
Aug 15
Full
Aug 23
Last Quarter
Aug 30
New
Sep 5
First Quarter

Hourly Weather History & Observations

Time (MDT) Temp. Dew Point Humidity Pressure Visibility Wind Dir Wind Speed Gust Speed Precip Events Conditions
12:56 AM 69.1 °F 39.0 °F 33% 29.76 in 7.0 mi SW 3.5 mph - N/A   Clear
1:56 AM 64.0 °F 39.9 °F 41% 29.75 in 7.0 mi WSW 4.6 mph - N/A   Clear
2:56 AM 66.0 °F 39.9 °F 38% 29.75 in 7.0 mi West 9.2 mph - N/A   Clear
3:56 AM 64.0 °F 41.0 °F 43% 29.74 in 7.0 mi WNW 11.5 mph - N/A   Clear
4:56 AM 63.0 °F 42.1 °F 46% 29.75 in 8.0 mi West 4.6 mph - N/A   Clear
5:56 AM 64.9 °F 42.1 °F 43% 29.75 in 9.0 mi NNW 5.8 mph - N/A   Partly Cloudy
6:56 AM 62.1 °F 42.1 °F 48% 29.79 in 7.0 mi NW 13.8 mph - N/A   Scattered Clouds
7:56 AM 63.0 °F 46.9 °F 56% 29.82 in 10.0 mi NNW 26.5 mph 33.4 mph N/A   Partly Cloudy
8:56 AM 63.0 °F 51.1 °F 65% 29.86 in 10.0 mi North 23.0 mph 38.0 mph N/A   Partly Cloudy
9:56 AM 64.0 °F 51.1 °F 63% 29.90 in 10.0 mi NNW 11.5 mph 20.7 mph N/A   Clear
10:56 AM 64.0 °F 51.1 °F 63% 29.91 in 10.0 mi NW 16.1 mph - N/A   Clear
11:56 AM 63.0 °F 51.1 °F 65% 29.94 in 10.0 mi NW 15.0 mph - N/A   Clear
12:56 PM 64.0 °F 51.1 °F 63% 29.93 in 10.0 mi NNW 19.6 mph 25.3 mph N/A   Mostly Cloudy
1:56 PM 68.0 °F 51.1 °F 55% 29.91 in 10.0 mi NNW 24.2 mph 32.2 mph N/A   Mostly Cloudy
2:56 PM 68.0 °F 50.0 °F 52% 29.91 in 10.0 mi North 20.7 mph 31.1 mph N/A   Overcast
3:56 PM 69.1 °F 48.9 °F 49% 29.92 in 10.0 mi North 13.8 mph - N/A   Overcast
4:56 PM 68.0 °F 52.0 °F 56% 29.92 in 10.0 mi North 16.1 mph 26.5 mph N/A   Overcast
5:56 PM 66.9 °F 53.1 °F 61% 29.93 in 10.0 mi North 17.3 mph - 0.00 in   Overcast
6:56 PM 64.9 °F 52.0 °F 63% 29.94 in 10.0 mi NNE 16.1 mph - 0.00 in Rain Light Rain
7:56 PM 64.0 °F 51.1 °F 63% 29.96 in 10.0 mi NNE 13.8 mph - 0.00 in   Overcast
8:56 PM 60.1 °F 52.0 °F 75% 29.97 in 10.0 mi NNE 12.7 mph - 0.00 in Rain Light Rain
9:56 PM 59.0 °F 51.1 °F 75% 29.99 in 10.0 mi North 13.8 mph - 0.01 in   Overcast
10:56 PM 57.9 °F 51.1 °F 78% 29.99 in 10.0 mi North 11.5 mph - N/A   Overcast
11:56 PM 57.0 °F 51.1 °F 81% 30.00 in 10.0 mi North 11.5 mph - N/A   Overcast